Погода в Тимирязевском

Россия / Томская область     56°28′42″N   84°53′05″E
темп.,
°C
ветер,
м/с
пор.,
м/с
влажн.,
%
обл.,
%
осадки,
мм/ч
давл.,
гПа
погр.,
м
12 апреля, пн
пн1201:00+1юз2799100 0.0 1036237
04:00+1юз3798100 0.1 1034297
07:00+1юз4895100 0.1 1033354
10:00+2юз51187100 0.0 1031447
13:00+5юз51277100 0.0 1029578
16:00+6зюз51277100 0.0 1026727
19:00+4зюз41085100 0.2 1026486
22:00+2зюз31097100 3.1 1025427
13 апреля, вт
вт1301:00+2зсз3998100 4.9 1025596
04:00+1зсз2697100 0.0 1026179
07:000сз4791100 0.0 1028553
10:00+1сз357835 0.0 1029750
13:00+4зсз577297 0.1 10291335
16:00+6зсз486193 0.1 10281667
19:00+4зсз4970100 0.4 1028703
22:00+3зсз4983100 0.3 1029462
14 апреля, ср
ср1401:00+1з399076 0.4 1029308
04:000зюз3992100 0.0 1029281
07:000зюз3994100 0.0 1029337
10:00+3зюз4779100 0.0 1028604
13:00+2юз41197100 0.8 1026566
16:00+4зюз51394100 2.4 1023848
19:00+6з6127792 2.4 10201001
22:00+5зсз51188100 0.1 1021964
15 апреля, чт
чт1501:00+4зсз3792100 0.3 1021317
04:00+3з2496100 0.0 1022159
07:00+3зсз1396100 0.0 1023132
10:00+4з1292100 0.0 1023312
13:00+6юз3478100 0.0 1021796
16:00+8юз4671100 0.1 10191094
19:00+7юз4881100 0.1 1017587
22:00+7ююз41189100 0.0 1015362
16 апреля, пт
пт1601:00+6юз4139425 0.1 1013419
04:00+6юз4129444 0.0 1011362
07:00+6юз4139327 0.0 1011385
10:00+9зсз478197 0.0 1011775
13:00+5ссз3688100 0.1 1014394
16:00+5ссз4576100 0.0 1015751
19:00+5ссз357378 0.0 1016762
22:00+3ссв3672100 0.0 1017312